Miscellaneous Local Product
Issued by NWS North Platte, NE

Home | Current Version | Previous Version | Text Only | Print | Product List | Glossary On
Versions: 1 2 3 4 5 6 7 8 9 10 11 12 13 14 15 16 17 18 19 20 21 22 23 24 25 26 27 28 29 30 31 32 33 34 35 36 37 38 39 40 41 42 43 44 45 46 47 48 49 50
000
AXUS43 KLBF 290010
MISLBF


WESTERN AND NORTH CENTRAL NEBRASKA HOURLY WEATHER ROUNDUP
NATIONAL WEATHER SERVICE NORTH PLATTE NE
700 PM CDT SAT MAR 28 2015

***STATIONS NOT REPORTING VARIABLES SUCH AS SKY/WEATHER OR
PRESSURE ARE PROVIDED BY THE NEBRASKA DEPARTMENT OF
ROADS...RAWS...AND APRS NETWORKS...AND ARE NOT UNDER
NATIONAL WEATHER SERVICE QUALITY CONTROL***

...OBSERVATIONS IN AND NEAR THE EASTERN PANHANDLE OF NEBRASKA...

CITY           SKY/WX    TMP DP  RH WIND       PRES   REMARKS
PINE RIDGE     SUNNY     79  24  13 W20G26    29.65F
CHADRON        SUNNY     81  28  14 W18G24    29.65F
ALLIANCE       SUNNY     79  32  18 W18G24    29.74F
SIDNEY         MOSUNNY   78  24  13 NW18G26   29.81F
BIG SPRINGS      N/A     84  28  13 W13         N/A
$$

...OBSERVATIONS IN NORTH CENTRAL NEBRASKA...

CITY           SKY/WX    TMP DP  RH WIND       PRES   REMARKS
VALENTINE      SUNNY     77  33  20 S21G31    29.67F
THEDFORD       SUNNY     76  36  23 S22       29.76F
AINSWORTH      SUNNY     69  34  27 S23G33    29.73F
O`NEILL        CLEAR     60  34  38 S21G28    29.84F
ORD            CLEAR     63  33  32 SE16G28   29.86F
BROKEN BOW     SUNNY     68  36  30 S17G25    29.83F
SPRINGVIEW       N/A     68  38  33 SE12G25     N/A
SARGENT          N/A     65  36  33 S10         N/A
COMSTOCK         N/A     71  36  28 S18         N/A
EWING            N/A     56  38  52 S10G17      N/A
$$

...OBSERVATIONS IN SOUTHWEST NEBRASKA AND FAR NORTHEAST COLORADO...

CITY           SKY/WX    TMP DP  RH WIND       PRES   REMARKS
WRAY           FAIR      82  21  10 SW8       29.84S
IMPERIAL         N/A     81  21  11 W15G26    29.79F
OGALLALA       MOSUNNY   82  29  14 W17       29.75F
NORTH PLATTE   SUNNY     74  35  24 SE16      29.78F
MCCOOK         SUNNY     78  34  20 SE20G29   29.81F
LEXINGTON      SUNNY     68  35  29 SE22      29.85F
PAXTON           N/A     80  34  19 S16         N/A
BRADY            N/A     70  38  31 N3          N/A
GOTHENBURG       N/A     72  34  25 S13         N/A
CALLAWAY         N/A     71  40  32 S24         N/A
$$

...NORTH PLATTE AREA...

CITY           SKY/WX    TMP DP  RH WIND       PRES   REMARKS
AIRPORT        SUNNY     74  35  24 SE16      29.78F
DOWNTOWN         N/A     75  37  25 SE12G24     N/A
$$

...SOME WEATHER OBSERVATIONS FROM AROUND THE REGION...

CITY           SKY/WX    TMP DP  RH WIND       PRES   REMARKS
DENVER         MOSUNNY   75  18  11 W22       29.93R
LARAMIE        MOSUNNY   61  27  27 W25G46    30.02R
CHEYENNE       SUNNY     70  21  15 W20G32    29.94S
SCOTTSBLUFF    SUNNY     77  27  15 W12       29.75F
RAPID CITY     PTSUNNY   82  21  10 W24G31    29.55F
PIERRE         SUNNY     66  36  32 SE18      29.60F
WINNER         FAIR      70  33  25 S26G36    29.67F
SIOUX FALLS    CLEAR     51  27  39 S21G32    29.90F
OMAHA          CLEAR     53  30  41 S22       30.03F
GRAND ISLAND   CLEAR     60  34  37 SE16G24   29.93F
KANSAS CITY    CLEAR     50  31  48 S14       30.11S
WICHITA        CLEAR     70  40  33 SE16      29.98R
HAYS           SUNNY     72  39  30 SE17      29.94S
LIBERAL        SUNNY     81  34  18 SE8       29.93S
GOODLAND       SUNNY     79  20  11 W9        29.87F
$$



USA.gov is the U.S. government's official web portal to all federal, state and local government web resources and services.